This demonstration page uses our WeatherBlox Daily Observations layout. Learn more.

Left ArrowRight Arrow

53.62937, 11.41316

Hourly Observations for April 1, 2022

Temp ( °F °C ) Dew Point ( °F °C ) Humidity (%) Winds ( mph kmh ) Pressure ( in mb ) Visibility ( mi km ) Precip ( " mm )
12:20 am 00:20 Mostly Cloudy 36 2 19 -7 52 52 ENE 15 24 29.77 1008 30 48 N/A
12:50 am 00:50 Mostly Cloudy 36 2 19 -7 52 52 ENE 14 22 29.77 1008 30 48 N/A
1:20 am 01:20 Mostly Cloudy 36 2 19 -7 52 52 ENE 14 22 29.77 1008 30 48 N/A
1:50 am 01:50 Mostly Cloudy 36 2 19 -7 52 52 ENE 14 22 29.77 1008 30 48 N/A
2:20 am 02:20 Mostly Clear 36 2 21 -6 56 56 ENE 16 26 29.77 1008 30 48 N/A
2:50 am 02:50 Mostly Clear 36 2 21 -6 56 56 ENE 16 26 29.77 1008 30 48 N/A
3:20 am 03:20 Partly Cloudy 36 2 21 -6 56 56 NE 14 22 29.77 1008 30 48 N/A
3:50 am 03:50 Partly Cloudy 36 2 21 -6 56 56 NE 14 22 29.77 1008 30 48 N/A
4:20 am 04:20 Mostly Cloudy 36 2 21 -6 56 56 NE 15 24 29.77 1008 30 48 N/A
4:50 am 04:50 Mostly Cloudy 36 2 21 -6 56 56 NE 17 28 29.77 1008 30 48 N/A
5:20 am 05:20 Partly Cloudy 36 2 23 -5 60 60 NE 16 26 29.77 1008 30 48 N/A
5:50 am 05:50 Mostly Cloudy 36 2 23 -5 60 60 NE 15 24 29.77 1008 30 48 N/A
6:20 am 06:20 Mostly Clear 36 2 23 -5 60 60 ENE 18 30 29.77 1008 7 11 N/A
6:50 am 06:50 Mostly Sunny 36 2 25 -4 65 65 ENE 16 26 29.80 1009 7 11 N/A
7:20 am 07:20 Mostly Sunny 36 2 25 -4 65 65 ENE 15 24 29.80 1009 7 11 N/A
7:50 am 07:50 Mostly Sunny 36 2 25 -4 65 65 ENE 15 24 29.80 1009 30 48 N/A
8:20 am 08:20 Mostly Sunny 37 3 27 -3 65 65 ENE 17 28 29.83 1010 30 48 N/A
8:50 am 08:50 Mostly Sunny 37 3 25 -4 60 60 ENE 21 33 29.83 1010 30 48 N/A
9:20 am 09:20 Mostly Sunny 37 3 25 -4 60 60 ENE 17 28 29.83 1010 30 48 N/A
9:50 am 09:50 Mostly Sunny 37 3 25 -4 60 60 ENE 18 30 29.83 1010 30 48 N/A
10:20 am 10:20 Mostly Sunny 39 4 25 -4 56 56 ENE 18 30 29.83 1010 30 48 N/A
10:50 am 10:50 Mostly Sunny 39 4 23 -5 52 52 ENE 23 37 29.83 1010 30 48 N/A
11:20 am 11:20 Partly Cloudy 39 4 23 -5 52 52 NE 20 31 29.86 1011 30 48 N/A
11:50 am 11:50 Mostly Cloudy 39 4 25 -4 56 56 NE 18 30 29.86 1011 30 48 N/A
12:20 pm 12:20 Mostly Cloudy 41 5 27 -3 57 57 NE 21 33 29.86 1011 30 48 N/A
12:50 pm 12:50 Mostly Cloudy 41 5 27 -3 57 57 NE 21 33 29.86 1011 30 48 N/A
1:20 pm 13:20 Mostly Cloudy 41 5 27 -3 57 57 NE 20 31 29.86 1011 30 48 N/A
1:50 pm 13:50 Mostly Cloudy 41 5 25 -4 53 53 NE 20 31 29.86 1011 30 48 N/A
2:20 pm 14:20 Mostly Cloudy 41 5 27 -3 57 57 NE 22 35 29.86 1011 30 48 N/A
2:50 pm 14:50 Mostly Sunny 41 5 25 -4 53 53 NE 23 37 29.86 1011 30 48 N/A
3:20 pm 15:20 Partly Cloudy 39 4 25 -4 56 56 NE 23 37 29.86 1011 30 48 N/A
3:50 pm 15:50 Partly Cloudy 39 4 25 -4 56 56 NE 23 37 29.86 1011 30 48 N/A
4:20 pm 16:20 Partly Cloudy 39 4 25 -4 56 56 NE 22 35 29.86 1011 30 48 N/A
4:50 pm 16:50 Mostly Cloudy 39 4 25 -4 56 56 NE 25 41 29.86 1011 30 48 N/A
5:20 pm 17:20 Partly Cloudy 39 4 25 -4 56 56 NE 22 35 29.89 1012 30 48 N/A
5:50 pm 17:50 Mostly Sunny 39 4 25 -4 56 56 NE 21 33 29.89 1012 30 48 N/A
6:20 pm 18:20 Mostly Sunny 39 4 25 -4 56 56 NE 21 33 29.89 1012 30 48 N/A
6:50 pm 18:50 Mostly Sunny 37 3 23 -5 56 56 NE 21 33 29.89 1012 30 48 N/A
7:20 pm 19:20 Mostly Sunny 37 3 25 -4 60 60 NE 17 28 29.92 1013 30 48 N/A
7:50 pm 19:50 Mostly Sunny 37 3 25 -4 60 60 NE 18 30 29.92 1013 30 48 N/A
8:20 pm 20:20 Mostly Clear 37 3 23 -5 56 56 NE 17 28 29.92 1013 7 11 N/A
8:50 pm 20:50 Mostly Clear 37 3 21 -6 52 52 NE 15 24 29.95 1014 7 11 N/A
9:20 pm 21:20 Mostly Cloudy 37 3 23 -5 56 56 NE 14 22 29.95 1014 30 48 N/A
9:50 pm 21:50 Partly Cloudy 36 2 23 -5 60 60 NE 12 19 29.95 1014 30 48 N/A
10:20 pm 22:20 Mostly Clear 36 2 25 -4 65 65 NE 12 19 29.95 1014 30 48 N/A
10:50 pm 22:50 Mostly Clear 36 2 23 -5 60 60 NE 12 19 29.95 1014 30 48 N/A
11:20 pm 23:20 Partly Cloudy 36 2 23 -5 60 60 ENE 9 15 29.98 1015 30 48 N/A
11:50 pm 23:50 Partly Cloudy 36 2 23 -5 60 60 NE 9 15 29.98 1015 30 48 N/A

Powered by AerisWeather